This is the latest recevied weather packets stored in our database for station/object K1LVA. If no packets are shown the sender has not sent any weather packets the latest 10 day(s).
| Time | Temp. | Humidity | Pressure | Rain* | Wind** | Luminosity | Snow |
|---|---|---|---|---|---|---|---|
| 1777683873 | 17.22° C | 86% | 1012.3 hPa | 0 mm | - | 0 W/m² | - |
| 1777683569 | 17.78° C | 86% | 1012.2 hPa | 0 mm | - | 0 W/m² | - |
| 1777683267 | 17.78° C | 85% | 1012.3 hPa | 0 mm | - | 0 W/m² | - |
| 1777682965 | 17.78° C | 85% | 1012.3 hPa | 0 mm | - | 0 W/m² | - |
| 1777682661 | 17.78° C | 85% | 1012.3 hPa | 0 mm | - | 0 W/m² | - |
| 1777682358 | 17.78° C | 85% | 1012.3 hPa | 0 mm | - | 0 W/m² | - |
| 1777682056 | 17.78° C | 85% | 1012.3 hPa | 0 mm | - | 0 W/m² | - |
| 1777681751 | 17.78° C | 85% | 1012.2 hPa | 0 mm | - | 0 W/m² | - |
| 1777681449 | 17.78° C | 85% | 1012 hPa | 0 mm | - | 0 W/m² | - |
| 1777681147 | 17.78° C | 84% | 1011.8 hPa | 0 mm | - | 0 W/m² | - |
| 1777680844 | 18.33° C | 84% | 1011.9 hPa | 0 mm | - | 0 W/m² | - |
| 1777680541 | 18.33° C | 83% | 1011.6 hPa | 0 mm | - | 0 W/m² | - |
| 1777680240 | 18.33° C | 82% | 1011.7 hPa | 0 mm | - | 0 W/m² | - |
| 1777679935 | 18.89° C | 81% | 1011.8 hPa | 0 mm | - | 0 W/m² | - |
| 1777679631 | 18.89° C | 81% | 1011.7 hPa | 0 mm | - | 4 W/m² | - |
| 1777679326 | 18.89° C | 80% | 1011.6 hPa | 0 mm | - | 8 W/m² | - |
| 1777679024 | 18.89° C | 80% | 1011.4 hPa | 0 mm | - | 16 W/m² | - |
| 1777678722 | 19.44° C | 79% | 1011.3 hPa | 0 mm | - | 29 W/m² | - |
| 1777678419 | 19.44° C | 79% | 1011.2 hPa | 0 mm | - | 26 W/m² | - |
| 1777678115 | 19.44° C | 78% | 1011.4 hPa | 0 mm | - | 28 W/m² | - |
| 1777677812 | 19.44° C | 78% | 1011.4 hPa | 0 mm | - | 38 W/m² | - |
| 1777677510 | 19.44° C | 77% | 1011.2 hPa | 0 mm | - | 44 W/m² | - |
| 1777677207 | 20° C | 76% | 1011.1 hPa | 0 mm | - | 45 W/m² | - |
| 1777676906 | 20° C | 75% | 1011.3 hPa | 0 mm | - | 51 W/m² | - |
| 1777676605 | 20° C | 75% | 1011.7 hPa | 0 mm | - | 58 W/m² | - |
* Rain latest hour (hover to see other rain measurements)
** Current wind speed in m/s (hover to see current wind gust speed)